Location: Antioch Church
(34.9543°N, 88.5145°W)
Time: 07:59:09
(UTC+00:00)

CZ-4C R/B - Pass Details

Date: 11 December 2019
Orbit: 646 x 1356 km, 63.4° (Epoch: 25 January)

Event Time Altitude Azimuth Distance (km) Brightness Sun altitude
Rises 00:16:36 0° 180° (S) 2,968 5.3 -18.7°
Reaches altitude 10° 00:19:04 10° 168° (SSE) 2,101 4.3 -19.2°
Enters shadow 00:22:13 26° 127° (SE) 1,390 3.0 -19.8°
